Location: ???????
(55.3754°N, 39.3545°E)
Time: 05:51:08
(UTC+00:00)

Cosmos 1624 Rocket - Pass Details

Date: 14 April 2026
Orbit: 753 x 778 km, 74.0° (Epoch: 10 May)

Event Time Altitude Azimuth Distance (km) Brightness Sun altitude
Exits shadow 21:47:00 50° 117° (ESE) 965 4.3 -24.8°
Maximum altitude 21:47:11 50° 109° (ESE) 962 4.3 -24.8°
Drops below altitude 10° 21:52:11 10° 35° (NE) 2,293 7.3 -24.7°
Sets 21:54:36 0° 30° (NNE) 3,220 8.3 -24.6°
